Regional Weather Roundup
Issued by NWS Charleston, SC

Current Version | Previous Version | Graphics & Text | Print | Product List | Glossary On
Versions: 1 2 3 4 5 6 7 8 9 10 11 12 13 14 15 16 17 18 19 20 21 22 23 24 25 26 27 28 29 30 31 32 33 34 35 36 37 38 39 40 41 42 43 44 45 46 47 48 49 50
000 ASUS42 KCHS 020010 RWRCHS REGIONAL WEATHER ROUNDUP NATIONAL WEATHER SERVICE CHARLESTON SC 800 PM EDT FRI AUG 01 2014 NOTE: "FAIR" INDICATES FEW OR NO CLOUDS BELOW 12,000 FEET WITH NO SIGNIFICANT WEATHER AND/OR OBSTRUCTIONS TO VISIBILITY. NOT ALL STATIONS ARE QUALITY CONTROLLED BY THE NATIONAL WEATHER SERVICE. USE DATA WITH CAUTION...ESPECIALLY DEWPOINT OBSERVATIONS. SCZ027-030-031-034>040-042>050-020100- ...SOUTH CAROLINA... CITY SKY/WX TMP DP RH WIND PRES REMARKS N CHARLESTON CLOUDY 80 73 79 S5 30.00F 6HR MIN TEMP: 80; 6HR MAX TEMP: 85; WATERFRONT PRK N/A 79 N/A N/A SE5 N/A FORT JOHNSON NOT AVBL MOUNT PLEASANT CLOUDY 79 73 83 CALM 30.01R JOHNS ISLAND CLEAR 79 68 69 CALM 30.00S PINOPOLIS N/A 82 75 78 MISG 29.93R MONCKS CORNER NOT AVBL SUMMERVILLE FAIR 79 79 100 CALM 30.01R BEAUFORT MCAS MOCLDY 80 75 84 CALM 30.00S 6HR MIN TEMP: 80; 6HR MAX TEMP: 87; BEAUFORT ARPT FAIR 79 75 89 CALM 29.99S HILTON HEAD IS MOCLDY 81 75 83 CALM 30.01R GEORGETOWN NOT AVBL WALTERBORO LGT RAIN 79 N/A N/A CALM 30.02R ORANGEBURG RAIN 76 72 87 SE8 30.04R FOG 6HR MIN TEMP: 80; 6HR MAX TEMP: 88; 6HR PCP: 0.01; BARNWELL FAIR 81 72 74 N10 30.02R AIKEN CLOUDY 70 70 100 N8 30.09R MANNING FAIR 73 N/A N/A CALM 30.02S KINGSTREE NOT AVBL COLUMBIA CLOUDY 75 68 78 NW7 30.04R 6HR MIN TEMP: 75; 6HR MAX TEMP: 82; 6HR PCP: TRACE; SUMTER CLOUDY 77 73 88 NW5 30.01R 6HR MIN TEMP: 77; 6HR MAX TEMP: 84; FLORENCE TSTM 76 71 85 CALM 30.02R 6HR MIN TEMP: 76; 6HR MAX TEMP: 85; 6HR PCP: 0.03; MYRTLE BEACH PTCLDY 81 72 74 S12 30.03R N MYRTLE BEACH CLOUDY 79 73 82 S9 30.02R 6HR MIN TEMP: 79; 6HR MAX TEMP: 81; $$ GAZ063-065-086>088-099>101-113>116-118-119-134-136>141-150-020100- ...GEORGIA... CITY SKY/WX TMP DP RH WIND PRES REMARKS SAVANNAH ARPT MOCLDY 80 75 84 NE6 29.98F 6HR MIN TEMP: 80; 6HR MAX TEMP: 85; 6HR PCP: TRACE; HUNTER AAF PTCLDY 79 76 90 E2 29.96F 6HR MIN TEMP: 77; 6HR MAX TEMP: 82; 6HR PCP: TRACE; FORT STEWART LGT RAIN 78 77 96 CALM 29.97F 6HR MIN TEMP: 73; 6HR MAX TEMP: 87; 6HR PCP: 0.51; STATESBORO NOT AVBL SYLVANIA CLOUDY 76 75 95 CALM 30.01S CLAXTON MOCLDY 75 75 100 CALM 30.00R FOG THOMSON CLOUDY 74 72 93 NE5 30.10R AUGUSTA-BUSH CLOUDY 74 67 78 N9 30.03R 6HR MIN TEMP: 74; 6HR MAX TEMP: 84; AUGUSTA-DANIEL CLOUDY 73 67 81 N14 30.05R SWAINSBORO MOCLDY 86 73 66 SE6 30.02R HX 93 VIDALIA N/A 79 73 83 E5 30.01R ALMA MOCLDY 73 71 93 E6 29.98F 6HR MIN TEMP: 73; 6HR MAX TEMP: 79; 6HR PCP: 2.13; WAYCROSS MOCLDY 80 76 88 NE7 29.97F JESUP MOCLDY 81 79 94 NE3 29.97S BRUNSWICK CLOUDY 81 73 78 N6 29.97R VSB 1/2 SAINT SIMONS PTCLDY 84 75 74 SE13 29.95F HX 92 6HR MIN TEMP: 84; 6HR MAX TEMP: 89; $$ SCZ027-028-034-036>038-045-046-048>050-GAZ119-141-020100- ...LAKE AND SUPPLEMENTAL COASTAL OBSERVATIONS... STATION/POSITION TIME TEMP WIND PRES WAVE SWELL AIR SEA DIR/SP/G HT/PER HT/PER/DIR (UTC) (F) (DEG/KT/KT) (MB) (FT/S) (FT/S/D) UPR LAKE MARION NOT AVBL WINYAH BAY NOT AVBL LAKE MURRAY 2300 71 310/ 4/ 6 1016.9R ACE BASIN NERRS NOT AVBL FORT PULASKI 0000 81 100/ 3/ 4 1015.6F SAPELO ISLAND 2300 85 100/ 5 1016.0R $$ ANZ835-935-AMZ111-154-330-350-352-354-374-450-454-472-020100- ...C-MAN AND BUOY OBSERVATIONS... STATION/POSITION TIME TEMP WIND PRES WAVE SWELL AIR SEA DIR/SP/G HT/PER HT/PER/DIR (UTC) (F) (DEG/KT/KT) (MB) (FT/S) (FT/S/D) FOLLY BEACH CMAN 2300 78 140/ 2/ 3 1016.2R BUOY 41004 0000 82 82 170/ 16/ 19 1015.2R 4/ 5 2/10 BUOY 41008 0000 82 85 130/ 16/ 17 1014.7R 3/ 6 2/ 90/ 7 5E ST. MARYS GA 0000 86 N/A 3/ 5 FRYING PAN BUOY NOT AVBL BUOY 41025 0000 VRB 12/ 14 1018.8F 3/ 6 2/130/ 6 CAPE LOOKOUT NC 2300 76 80/ 13/ 14 1017.7F BUOY 41002 NOT AVBL BUOY 41010 0000 83 85 110/ 10/ 12 1016.0R 3/ 8 2/ 90/ 8 BUOY 41012 NOT AVBL ST AUGUSTINE FL 0000 82 160/ 14/ 16 1015.7R CAPERS NEARSHORE 2300 79 250/ 6/ 8 N/A FRIPP NEARSHORE NOT AVBL $$

USA.gov is the U.S. government's official web portal to all federal, state and local government web resources and services.